[Date Prev][Date Next][Thread Prev][Thread Next] - [Date Index][Thread Index][Author Index]

2 Line ISS Keps 5-21



ISS
1 25544U 98067A   03141.13343928  .00008305  00000-0  10939-3 0   321
2 25544  51.6305 156.1854 0006045 135.6005 350.5064 15.59381333256789


----
Via the sarex mailing list at AMSAT.ORG courtesy of AMSAT-NA.
To unsubscribe, send "unsubscribe sarex" to Majordomo@amsat.org



AMSAT Top AMSAT Home